Weather in Zamzor

Russia / Irkutsk Oblast     55°22′07″N   98°39′06″E
temp.,
°C
wind,
m/s
gust,
m/s
humid.,
%
clouds,
%
prec.,
mm/h
press.,
hPa
HPBL,
m
20 april, tue
tue2023:00−6w92073100 0.1 10121355
02:00−7wnw61677100 0.1 10161182
05:00−8wnw6157523 0.0 10171232
08:00−8wnw514676 0.0 10191134
11:00−5wnw61056100 0.0 10191604
14:00−3wnw61046100 0.0 10181872
17:00−2wnw5845100 0.0 10181984
20:00−5nw475752 0.0 1020926
21 april, wed
wed2123:00−9sw118782 0.0 102321
02:00−9w38785 0.0 1024375
05:00−9w411765 0.0 1024763
08:00−7w511665 0.0 10251122
11:00−4wnw5844100 0.0 10251885
14:00−2nw5741100 0.0 10242171
17:00−1nw4542100 0.0 10251829
20:00−4n236210 0.0 102764
22 april, thu
thu2223:00−8ssw119017 0.0 103010
02:00−9s11945 0.0 103110
05:00−9sse1196100 0.0 103311
08:00−5e127269 0.0 1034179
11:00−1e234870 0.0 10351374
14:00+2ene2339100 0.0 10351956
17:00+2ene3338100 0.0 10361857
20:00−1ne136616 0.0 103946
23 april, fri
fri2323:00−5se11865 0.0 104331
02:00−6sse11905 0.0 104413
05:00−7se11955 0.0 104510
08:00−3ese12680 0.0 1046172
11:00+2ese354584 0.0 10451262
14:00+5e453787 0.0 10441725
17:00+5ese4638100 0.0 10421849
20:00+2e3960100 0.0 1042276
24 april, sat
sat2423:00−1e31172100 0.0 1043315
02:00−2e31174100 0.0 1041334
05:00−2e31270100 0.0 1039431
08:000e41458100 0.0 1037728
11:00+4ese51250100 0.0 10341247
14:00+7ese61038100 0.0 10301708
17:00+7e5946100 0.0 10281667
20:00+3e3869100 0.0 1029321